This is the latest recevied weather packets stored in our database for station/object LU4EGV-13. If no packets are shown the sender has not sent any weather packets the latest 10 day(s).
| Time | Temp. | Humidity | Pressure | Rain* | Wind** | Luminosity | Snow |
|---|---|---|---|---|---|---|---|
| 1777902544 | 17.78° C | 48% | 1010.9 hPa | 0 mm | - | - | - |
| 1777901938 | 17.78° C | 48% | 1011.1 hPa | 0 mm | - | - | - |
| 1777901343 | 17.22° C | 50% | 1011 hPa | 0 mm | - | - | - |
| 1777900725 | 16.67° C | 52% | 1011.5 hPa | 0 mm | - | - | - |
| 1777900120 | 16.67° C | 52% | 1011.3 hPa | 0 mm | - | - | - |
| 1777899515 | 16.67° C | 53% | 1011.3 hPa | 0 mm | - | - | - |
| 1777898906 | 16.11° C | 53% | 1011.4 hPa | 0 mm | - | - | - |
| 1777898301 | 15.56° C | 58% | 1011.4 hPa | 0 mm | - | - | - |
| 1777897694 | 15° C | 60% | 1011.3 hPa | 0 mm | - | - | - |
| 1777897088 | 14.44° C | 61% | 1011.3 hPa | 0 mm | - | - | - |
| 1777896482 | 14.44° C | 61% | 1011.3 hPa | 0 mm | - | - | - |
| 1777895876 | 13.89° C | 62% | 1011.3 hPa | 0 mm | - | - | - |
| 1777895270 | 13.89° C | 63% | 1011.1 hPa | 0 mm | - | - | - |
| 1777894663 | 13.33° C | 63% | 1011.4 hPa | 0 mm | - | - | - |
| 1777894057 | 13.33° C | 63% | 1011.4 hPa | 0 mm | - | - | - |
| 1777893451 | 13.33° C | 63% | 1011.3 hPa | 0 mm | - | - | - |
| 1777892845 | 13.33° C | 62% | 1010.9 hPa | 0 mm | - | - | - |
| 1777892240 | 13.33° C | 62% | 1011.2 hPa | 0 mm | - | - | - |
| 1777891633 | 13.33° C | 62% | 1011 hPa | 0 mm | - | - | - |
| 1777891026 | 13.33° C | 62% | 1011.2 hPa | 0 mm | - | - | - |
| 1777890420 | 13.33° C | 61% | 1011.1 hPa | 0 mm | - | - | - |
| 1777889814 | 13.33° C | 60% | 1010.8 hPa | 0 mm | - | - | - |
| 1777889208 | 13.89° C | 60% | 1010.7 hPa | 0 mm | - | - | - |
| 1777888602 | 13.89° C | 59% | 1011 hPa | 0 mm | - | - | - |
| 1777888012 | 13.89° C | 58% | 1011 hPa | 0 mm | - | - | - |
* Rain latest hour (hover to see other rain measurements)
** Current wind speed in m/s (hover to see current wind gust speed)